{"data":{"norad_id":64957,"intl_designator":"2025-159B","name":"HULIANWANG DIGUI-36","alt_names":[],"object_type":"PAYLOAD","status":"ACTIVE","operator":null,"country":"PRC","launch_date":"2025-07-27","launch_site_code":"TAISC","launch_vehicle":null,"mission":null,"orbit_class":"UNKNOWN","rcs_meters":null,"size_class":null,"mass_kg":null,"dimensions":null,"purposes":[],"wikipedia_slug":null,"has_3d_model":false,"image_url":null,"decayed_at":null,"tle_current":{"epoch":"2026-09-21T22:47:09.739392Z","epoch_age_seconds":43040,"freshness":"FRESH","line1":"1 64957U 25159B   26264.94941828 -.00000070  00000+0 -19703-3 0  9999","line2":"2 64957  86.4920 249.8023 0002197  84.8470 275.2915 13.24400999 55934","mean_motion":13.24400999,"eccentricity":0.0002197,"inclination_deg":86.492,"raan_deg":249.8023,"arg_perigee_deg":84.847,"mean_anomaly_deg":275.2915,"bstar":-0.00019703,"rev_number":5593,"period_min":108.72839880726,"perigee_km":1166.2984989607,"apogee_km":1169.61425239,"semimajor_km":7546.0933756754,"source":"CELESTRAK","updated_at":"2026-09-22T09:00:30.060799Z"}}}